Home   Weather   Ireland   Dublin   Past weeks
Flag for Ireland

Past Weather in Dublin, Ireland — Yesterday and Last 2 Weeks

Currently: 28 °F. Passing clouds. (Weather station: Dublin Airport, Ireland). See more current weather

Past Weather in Dublin — Graph

°F

Dublin Temperature Yesterday

Maximum temperature yesterday: 52 °F (at 11:00 am)
Minimum temperature yesterday: 27 °F (at 6:30 am)
Average temperature yesterday: 42 °F

High & Low Weather Summary for the Past Weeks

 TemperatureHumidityPressure
High55 °F (Apr 4, 2:00 pm)100% (Apr 2, 11:30 pm)30.60 "Hg (Apr 2, 11:30 pm)
Low25 °F (Apr 10, 2:30 am)40% (Apr 6, 5:00 pm)29.89 "Hg (Apr 8, 7:30 pm)
Average41 °F78%30.31 "Hg
* Reported Apr 2 2:00 am — Apr 17 2:00 am, Dublin. Weather by CustomWeather, © 2021

Note: Actual official high and low records may vary slightly from our data, if they occured in-between our weather recording intervals... More about our weather records

Dublin Weather History for the Previous 24 Hours

Scroll right to see more
 ConditionsComfort  
Time TempWeatherWind HumidityBarometerVisibility
2:00 am
Sat, Apr 17
30 °FPassing clouds.5 mph93%30.39 "HgN/A
1:30 am32 °FPassing clouds.3 mph87%30.39 "HgN/A
1:00 am34 °FClear.5 mph87%30.39 "Hg10 mi
12:30 am36 °FClear.5 mph81%30.42 "Hg10 mi
12:00 am37 °FClear.5 mph81%30.42 "Hg10 mi
11:30 pm
Fri, Apr 16
41 °FClear.3 mph76%30.42 "Hg10 mi
11:00 pm41 °FClear.6 mph76%30.42 "Hg10 mi
10:30 pm43 °FClear.5 mph71%30.42 "Hg10 mi
10:00 pm43 °FClear.5 mph66%30.42 "Hg10 mi
9:30 pm45 °FClear.5 mph61%30.39 "Hg10 mi
9:00 pm46 °FClear.6 mph57%30.39 "Hg10 mi
8:00 pm48 °FPassing clouds.6 mph54%30.39 "HgN/A
7:30 pm50 °FPassing clouds.8 mph50%30.39 "HgN/A
7:00 pm50 °FPassing clouds.9 mph50%30.36 "HgN/A
6:30 pm50 °FSunny.13 mph50%30.39 "Hg10 mi
6:00 pm50 °FSunny.12 mph50%30.39 "Hg10 mi
5:30 pm50 °FPartly sunny.15 mph54%30.39 "HgN/A
5:00 pm52 °FPartly sunny.16 mph50%30.36 "HgN/A
4:30 pm52 °FPartly sunny.12 mph54%30.39 "HgN/A
4:00 pm50 °FPartly sunny.13 mph58%30.39 "HgN/A
3:30 pm50 °FPartly sunny.13 mph62%30.39 "HgN/A
3:00 pm50 °FPartly sunny.12 mph67%30.39 "HgN/A
2:30 pm50 °FPartly sunny.14 mph67%30.39 "HgN/A
2:00 pm50 °FPartly sunny.13 mph67%30.39 "HgN/A
1:30 pm52 °FScattered clouds.14 mph58%30.39 "HgN/A
1:00 pm52 °FScattered clouds.14 mph62%30.39 "HgN/A
12:30 pm50 °FScattered clouds.13 mph62%30.42 "HgN/A
12:00 pm52 °FScattered clouds.12 mph54%30.42 "HgN/A
11:30 am52 °FScattered clouds.13 mph58%30.42 "HgN/A
11:00 am52 °FScattered clouds.9 mph47%30.42 "HgN/A
10:30 am50 °FPartly sunny.7 mph50%30.42 "HgN/A
10:00 am48 °FPartly sunny.6 mph54%30.42 "HgN/A
9:30 am48 °FPassing clouds.5 mph50%30.45 "HgN/A
9:00 am46 °FPassing clouds.6 mph57%30.45 "HgN/A
8:30 am43 °FSunny.3 mph71%30.42 "Hg10 mi
8:00 am36 °FScattered clouds.3 mph93%30.42 "HgN/A
7:30 am32 °FScattered clouds.2 mph93%30.42 "HgN/A
7:00 am30 °FScattered clouds.1 mph93%30.42 "HgN/A
6:30 am27 °FScattered clouds.3 mph93%30.42 "HgN/A
6:00 am28 °FPassing clouds.1 mph93%30.42 "HgN/A
5:30 am28 °FPassing clouds.2 mph93%30.42 "HgN/A
5:00 am28 °FPassing clouds.2 mph93%30.42 "HgN/A
4:30 am28 °FPassing clouds.3 mph93%30.42 "HgN/A
4:00 am28 °FPassing clouds.2 mph93%30.42 "HgN/A
3:30 am30 °FPassing clouds.2 mph93%30.42 "HgN/A
3:00 am32 °FPassing clouds.1 mph93%30.42 "HgN/A
Weather by CustomWeather, © 2021

See weather overview